Hauptseite
METAR-TAF:

METAR-TAF

Flughäfen :

Militärflugplatz Dübendorf

Dübendorf, Schweiz

Breite: 47-23-55N, Länge: 8-38-53E, Höhe: 448 m

Beobachtung

Neuester Wetterbericht von vor 19 Stunden und 32 Minuten, um 16:50 UTC
Windstille
Temperatur -1°C
Luftfeuchtigkeit 100%
Luftdruck 1021 hPa
Sichtweite: 4800 m
Geschlossene Wolkendecke in der Höhe von 300 ft
feuchter Dunst

METAR: LSMD 181650Z AUTO 00000KT 4800NDV BR OVC003 M01/M01 Q1021 RMK

Zeit: 13:22 (12:22 UTC)


TAF: fehlend

Wetterbeobachtungen und Prognosen von mehr als 4000 Flughäfen (METAR und TAF Bericht).

Die verfügbaren Stationen werden durch gelbe und rote Markierungen auf der Karte dargestellt.

Führen Sie die Maus auf sie, um den Namen der Station zu sehen.

Darauf klicken, um die Beobachtung von Wetterbeobachtungen und Prognosen zu sehen.

Um die Karte zu ändern : klicken Sie auf den grünen Tasten mit einem schwarzen Kreuz Zum Vergrößern, auf den grünen Button mit einem Gedankenstrich zu verkleinern, oder auf die grünen Pfeile für benachbarte Karten.


METAR-TAF: